Location: Carabito
(9.8355°N, 67.9249°W)
Time: 11:06:40
(UTC+00:00)

Cosmos 1455 Rocket - Pass Details

Date: 23 May 2024
Orbit: 602 x 625 km, 82.5° (Epoch: 19 June)

Event Time Altitude Azimuth Distance (km) Brightness Sun altitude
Rises 09:16:54 0° 342° (NNW) 2,874 6.6 -12.9°
Reaches altitude 10° 09:19:15 10° 333° (NNW) 1,973 5.6 -12.4°
Maximum altitude 09:23:15 36° 267° (W) 992 3.6 -11.5°
Drops below altitude 10° 09:27:16 10° 201° (SSW) 1,986 5.2 -10.5°
Sets 09:29:39 0° 192° (SSW) 2,894 6.2 -10.0°
